Weather Roundup
Issued by NWS Chicago, IL

Home | Current Version | Previous Version | Text Only | Print | Product List | Glossary On
Versions: 1 2 3 4 5 6 7 8 9 10 11 12 13 14 15 16 17 18 19 20 21 22 23 24 25 26 27 28 29 30 31 32 33 34 35 36 37 38 39 40 41 42 43 44 45 46 47 48 49 50
000
NZUS59 KLOT 241109
HRRLOT

CHICAGO AREA WEATHER ROUNDUP
NATIONAL WEATHER SERVICE CHICAGO/ROMEOVILLE IL
600 AM CDT THU AUG 24 2017

NOTE: "FAIR" INDICATES FEW OR NO CLOUDS BELOW 12,000 FEET WITH NO
SIGNIFICANT WEATHER AND/OR OBSTRUCTIONS TO VISIBILITY.

* THESE STATIONS ARE NOT UNDER NWS QUALITY CONTROL. THEY ALSO MAY NOT
  REPORT WEATHER SUCH AS PRECIPITATION OR FOG.

ILZ005-006-012>014-019>023-241200-
NORTHEAST ILLINOIS

CITY           SKY/WX    TMP DP  RH WIND       PRES   REMARKS
OHARE          PTCLDY    61  54  77 W5        30.06R
MIDWAY         PTCLDY    61  55  81 W5        30.06R
AURORA         CLEAR     50  50 100 W5        30.08R
LANSING*       PTCLDY    55  55  99 CALM      30.07S
JOLIET*        CLEAR     56  56 100 CALM      30.07S
WAUKEGAN       PTCLDY    58  55  90 W6        30.06R
DUPAGE AIRPORT CLEAR     54  54 100 CALM      30.07R
WHEELING       CLEAR     59  56  89 W3        30.08R
MORRIS*        CLEAR     53  51  95 CALM      30.07R
LEWIS AIRPORT* CLEAR     55  54  96 CALM      30.07R
NORTHERLY ISL    N/A     65  55  70 W6          N/A
$$

WIZ051-052-058>065-066-070>072-241200-
SOUTHEAST WISCONSIN

CITY           SKY/WX    TMP DP  RH WIND       PRES   REMARKS
MILWAUKEE      CLOUDY    62  58  86 N8        30.07R
KENOSHA*       CLOUDY    57  53  86 NW5       30.07R
RACINE*        CLOUDY    58  54  86 NW7       30.08R
WAUKESHA       MOCLDY    55  54  94 N5        30.10R
WEST BEND      CLOUDY    55  54  94 N5        30.09S
$$

INZ001>003-010>013-019-020-241200-
NORTHWEST INDIANA

CITY           SKY/WX    TMP DP  RH WIND       PRES   REMARKS
GARY*          PTCLDY    57  55  94 S6        30.07S
MICHIGAN CITY* NOT AVBL
RENSSELAER*    NOT AVBL
VALPARAISO     MOCLDY    54  53  97 CALM      30.08R
$$

LMZ740>746-241200-
SOUTHERN LAKE MICHIGAN

STATION/POSITION TIME  SKY/WX   TEMP WIND        PRES    VSBY
                                AIR  DIR/SP/G
                 (UTC)          (F)  (DEG/KT/KT) (MB)    (MI)
HARRISON CRIB    1040            66  260/ 11/ 12   N/A
BURNHAM HARBOR   NOT AVBL
CALUMET HARBOR   1042            61  230/  3/  5 1017.2R
BURNS HARBOR     1040            60  190/  8/  9 1018.6R
MICHIGAN CITY    1040            59  140/  7/  9   N/A
$$

ABBREVIATIONS USED IN REMARKS
   TC - TEMPERATURE IN CELSIUS
  WCI - WIND CHILL INDEX
   HX - HEAT INDEX
  VSB - VISIBILITY
$$




USA.gov is the U.S. government's official web portal to all federal, state and local government web resources and services.